Location: Mauries
(43.6188°N, 0.3322°W)
Time: 19:37:37
(UTC+00:00)

RS-44 - Visible Passes

Search period start: 18 May 2026 00:00
Search period end: 28 May 2026 00:00
Orbit: 1175 x 1510 km, 82.5° (Epoch: 18 May)

Date Brightness Start Highest point End Pass type
(mag) Time Alt. Az. Time Alt. Az. Time Alt. Az.
18 May ? 20:51:20 10° NNW 20:58:09 31° W 21:04:35 10° SW visible
19 May ? 21:16:05 10° NW 21:21:21 20° WNW 21:26:24 10° WSW visible
20 May ? 19:44:47 10° NNW 19:52:46 67° W 20:00:09 10° S visible
20 May ? 21:42:19 10° NW 21:44:22 11° WNW 21:46:23 10° W visible
21 May ? 20:08:51 10° NNW 20:16:16 43° W 20:23:12 10° SSW visible
22 May ? 20:33:14 10° NNW 20:39:35 27° W 20:45:37 10° SW visible
23 May ? 20:58:13 10° NW 21:02:44 17° WNW 21:07:08 10° WSW visible
25 May ? 19:50:41 10° NNW 19:57:44 38° W 20:04:22 10° SSW visible
26 May ? 20:15:10 10° NNW 20:21:00 24° W 20:26:36 10° SW visible
27 May ? 20:40:27 10° NW 20:44:07 14° WNW 20:47:41 10° WSW visible
